Weather in Makiivka

Ukraine / Donetsk Region     48˚02′52″N   37˚57′52″E
temp.,
°C
wind,
m/s
gust,
m/s
humid.,
%
clouds,
%
prec.,
mm/h
press.,
hPa
HPBL,
m
28 november, sat
sat2823:00+6˚ssw4988100 0.0 1023571
02:00+5˚ssw499098 0.0 1022361
05:00+5˚s4994100 0.0 1022352
08:00+5˚s4891100 0.1 1023328
11:00+6˚sse587999 0.0 1024515
14:00+7˚sse595499 0.0 1023563
17:00+5˚se41082100 0.0 1023424
20:00+3˚se51083100 0.0 1023351
29 november, sun
sun2923:00+2˚se488190 0.0 1023273
02:00+1˚ese489585 0.0 1024242
05:00+1˚ese499799 0.0 1023317
08:00+2˚se5995100 0.0 1024419
11:00+3˚se5894100 0.0 1024428
14:00+5˚se5989100 0.0 1024444
17:00+5˚ese5138998 0.0 1024497
20:00+5˚se5149099 0.0 1026548
30 november, mon
mon3023:00+4˚se51391100 0.0 1025478
02:00+4˚ese6119698 0.0 1025467
05:00+5˚ese61190100 0.0 1025599
08:00+5˚ese71184100 0.0 1026650
11:00+6˚ese7117092 0.0 1025788
14:00+5˚ese7106895 0.0 1025913
17:00+5˚ese71172100 0.0 10251040
20:00+4˚ese71270100 0.0 1025836
1 december, tue
tue123:00+3˚ese7126994 0.0 1025693
02:00+2˚ese7126695 0.0 1025666
05:00+1˚ese61272100 0.0 1025667
08:00+1˚ese61177100 0.0 1025631
11:00+1˚e61176100 0.0 1025628
14:00+2˚e61176100 0.0 1025697
17:00+2˚e61276100 0.0 1025696
20:00+2˚ese61275100 0.0 1026674
2 december, wed
wed223:00+1˚ese61177100 0.0 1026639
02:00+1˚ese51079100 0.0 1026550
05:00ese6118199 0.0 1027498
08:00ese6118199 0.0 1027480
11:00+1˚ese61076100 0.0 1028583
14:00+2˚ese6974100 0.0 1027675
17:00+2˚ese61076100 0.0 1027744
20:00+2˚ese61078100 0.0 1028744